[[{"header":{"parameterUnit":"m.s-1","parameterCategory":2,"la1":30.2991,"la2":30.254,"lo1":-89.0895,"lo2":-89.0444,"dy":0.0017,"dx":0.0017,"nx":28,"ny":28,"refTime":"2025-09-01T03:00:00:Z","depth":"0","parameterNumber":2,"parameterNumberName":"U-component_of_CURRENTS"},"data":[0,0,0,0,0,0,0,0,0,0,0,0,0,0,0,0,0,0,0,0,0,0,0,0,0,0,0,0,0,0,0,0,0,0,0,0,0,0,0,0,0,0,0,0,0,0,0,0,0,0,0,0,0,0,0,0,0,0,0.2059,0.2059,0,0.2014,0.2013,0.2013,0.1988,0.1988,0.1988,0.1988,0.1946,0.1944,0.1943,0,0,0,0,0,0,0,0,0,0,0,0,0,0.2099,0.2098,0.2059,0.2059,0.2058,0.2014,0.2013,0.2013,0.1988,0.1988,0.1988,0.1988,0.1946,0.1945,0.1943,0,0,0,0,0,0,0,0,0,0,0,0,0,0.2069,0.2098,0.2059,0.2042,0.204,0.2014,0.2013,0.2012,0.1988,0.1988,0.1988,0.1988,0.1946,0.1945,0.1943,0.193,0,0,0.1938,0.1937,0,0,0,0,0,0,0,0,0.2071,0.2068,0.2045,0.2043,0.2041,0.2008,0.2011,0.1985,0.1988,0.2007,0.1988,0.1988,0.1967,0.1964,0.1953,0.1928,0.1927,0.1937,0.1936,0.1936,0.1935,0,0,0,0,0,0,0,0.2073,0.2069,0.204,0.2044,0.2042,0.2027,0.2023,0.2006,0.1986,0.2005,0.2003,0.2,0.1966,0.1955,0.1952,0.1926,0.1937,0.1936,0.1935,0.1934,0.1934,0.1935,0,0,0,0,0,0,0.2082,0.2071,0.2042,0.2039,0.2058,0.2027,0.2022,0.2017,0.1986,0.1982,0.2,0.1999,0.1958,0.1954,0.1951,0.1967,0.1936,0.1934,0.1933,0.1933,0.1934,0.1936,0,0,0,0,0,0,0.2083,0.208,0.2043,0.2055,0.205,0.2026,0.2021,0.2016,0.201,0.1983,0.1978,0.1999,0.1958,0.1953,0.1949,0.1964,0.1933,0.1931,0.1932,0.1934,0.1935,0.1979,0,0,0,0,0,0,0.2084,0.208,0.2078,0.2056,0.2049,0.2035,0.2021,0.2016,0.2008,0.2006,0.198,0.1976,0.1958,0.1952,0.1947,0.1961,0.193,0.1931,0.1933,0.1934,0.1976,0.1982,0.1987,0,0,0,0,0,0.2086,0.2081,0.2078,0.2074,0.2047,0.2036,0.2031,0.2014,0.2008,0.2007,0.1996,0.1977,0.1961,0.1951,0.1945,0.1959,0.193,0.1932,0.1934,0.1974,0.1981,0.1987,0,0,0,0,0,0,0.2094,0.2077,0.2073,0.2063,0.2055,0.2032,0.2026,0.2018,0.2007,0.2005,0.1983,0.1978,0.1985,0.1966,0.1955,0.1968,0.1945,0.1947,0.1977,0.1984,0.1989,0.1983,0.1929,0,0,0,0,0,0.2096,0.2087,0.2076,0.2067,0.2066,0.2049,0.2041,0.2032,0.202,0.2014,0.2,0.199,0.1989,0.1982,0.1976,0.1973,0.1975,0.1982,0.1988,0.1992,0.1985,0.2023,0.2032,0.1943,0.1943,0.1943,0,0,0.2096,0.2085,0.2081,0.2068,0.2059,0.2056,0.2044,0.2036,0.2035,0.2011,0.2008,0.2007,0.1995,0.2001,0.2001,0.1985,0.2019,0.1995,0.1999,0.1989,0.2027,0.2035,0.2043,0.1945,0.1945,0.1945,0,0,0.209,0.2086,0.2078,0.2075,0.2065,0.206,0.2063,0.205,0.2047,0.2046,0.2039,0.2049,0.2034,0.2034,0.2032,0.2061,0.2051,0.2063,0.2075,0.2113,0.2121,0.2127,0.2143,0.215,0.2059,0.2059,0.2059,0,0.2089,0.2075,0.2075,0.2068,0.2062,0.2067,0.2059,0.2063,0.2051,0.2053,0.2052,0.2061,0.2052,0.2066,0.2077,0.2073,0.2085,0.2051,0.2121,0.2127,0.2133,0.2147,0.2155,0.2062,0.2061,0.2061,0.2061,0,0.2072,0.2068,0.2065,0.2059,0.206,0.2054,0.2063,0.2069,0.2073,0.2077,0.2099,0.21,0.2104,0.2112,0.2098,0.2136,0.2129,0.2129,0.2104,0.2145,0.2157,0.2164,0.2065,0.2064,0.2064,0.2063,0,0,0.2042,0.205,0.2047,0.2045,0.2051,0.2047,0.2063,0.2071,0.2085,0.21,0.2117,0.2132,0.2144,0.2142,0.2143,0.2169,0.2222,0.2163,0.2164,0.2176,0.2296,0.2159,0.2154,0.2241,0.2243,0.2244,0.2288,0,0.2021,0.2012,0.202,0.2016,0.2012,0.203,0.2043,0.2059,0.2084,0.2109,0.2136,0.2156,0.2155,0.2164,0.2195,0.2221,0.2243,0.2209,0.2255,0.2256,0.2128,0.2158,0.2011,0.2026,0.2295,0.2296,0.2297,0,0.1986,0.1987,0.1978,0.1992,0.1992,0.1995,0.2018,0.2033,0.2083,0.2106,0.2147,0.2171,0.2215,0.221,0.2281,0.2262,0.2276,0.2294,0.2296,0.2153,0.2132,0.2029,0.2029,0.1941,0.2308,0.2307,0.2306,0,0.1945,0.1951,0.1943,0.1944,0.1967,0.1968,0.1983,0.2026,0.2048,0.2109,0.2141,0.2199,0.2234,0.2279,0.2306,0.2306,0.2375,0.2383,0.2272,0.2263,0.2134,0.2109,0.2047,0.2425,0.2425,0.2425,0.2424,0,0.1906,0.1897,0.1923,0.1916,0.1913,0.194,0.1954,0.1984,0.2039,0.2072,0.2138,0.2175,0.2256,0.23,0.2323,0.2307,0.2393,0.2268,0.2264,0.2143,0.212,0.2032,0.2013,0.2426,0.2426,0.2426,0.2425,0,0.1855,0.1872,0.1863,0.1885,0.1892,0.1889,0.1929,0.1949,0.201,0.2059,0.208,0.2174,0.222,0.227,0.2337,0.2309,0.2221,0.2286,0.2119,0.209,0.1868,0.1857,0.1724,0.1687,0.2174,0.2171,0.2168,0,0.1827,0.1819,0.1834,0.1831,0.1837,0.1848,0.1861,0.1922,0.195,0.2048,0.2068,0.2132,0.2148,0.2182,0.2138,0.2125,0.2102,0.1982,0.1938,0.1818,0.1807,0.1754,0.1732,0.1805,0.18,0.1795,0.1792,0,0.1776,0.178,0.1777,0.1774,0.1779,0.1792,0.1817,0.1837,0.1913,0.1949,0.1992,0.2011,0.2013,0.1913,0.1875,0.1863,0.1827,0.1885,0.1826,0.1547,0.1425,0.1398,0.1811,0.1752,0.1756,0.1759,0.1761,0.1763,0.1736,0.1713,0.1711,0.1698,0.171,0.1717,0.1704,0.1743,0.1763,0.1779,0.1855,0.1808,0.1735,0.1637,0.161,0.1427,0.1515,0.1364,0.1377,0.1346,0.1241,0.1533,0.1419,0.1421,0.1423,0.1424,0.1425,0,0.1664,0.1645,0.1636,0.1615,0.1598,0.1633,0.1653,0.1627,0.1608,0.1616,0.1603,0.1453,0.131,0.1248,0.1047,0.0941,0.0935,0.0912,0.0838,0.0861,0.1171,0.1082,0.0808,0.0808,0.0809,0.0809,0.0809,0.0809,0.1629,0.1572,0.1555,0.1496,0.149,0.1445,0.1437,0.1415,0.1397,0.1278,0.1163,0.1127,0.1017,0.0775,0.0594,0.0586,0.0555,0.0449,0.054,0.0772,0.0817,0.086,0.0771,0.0437,0.0436,0.0166,0.0163,0.0162]},{"header":{"parameterUnit":"m.s-1","parameterCategory":2,"la1":30.2991,"la2":30.254,"lo1":-89.0895,"lo2":-89.0444,"dy":0.0017,"dx":0.0017,"nx":28,"ny":28,"refTime":"2025-09-01T03:00:00:Z","depth":"0","parameterNumber":3,"parameterNumberName":"V-component_of_CURRENTS"},"data":[0,0,0,0,0,0,0,0,0,0,0,0,0,0,0,0,0,0,0,0,0,0,0,0,0,0,0,0,0,0,0,0,0,0,0,0,0,0,0,0,0,0,0,0,0,0,0,0,0,0,0,0,0,0,0,0,0,0,0.0339,0.0339,0,0.0342,0.0342,0.0342,0.0344,0.0344,0.0344,0.0344,0.0335,0.0335,0.0335,0,0,0,0,0,0,0,0,0,0,0,0,0,0.0312,0.0313,0.0339,0.0339,0.0339,0.0342,0.0342,0.0343,0.0344,0.0344,0.0344,0.0344,0.0335,0.0335,0.0335,0,0,0,0,0,0,0,0,0,0,0,0,0,0.0321,0.0313,0.0339,0.034,0.034,0.0342,0.0342,0.0343,0.0344,0.0344,0.0344,0.0344,0.0335,0.0335,0.0335,0.0334,0,0,0.0334,0.0334,0,0,0,0,0,0,0,0,0.032,0.0322,0.034,0.034,0.034,0.0342,0.033,0.0339,0.0344,0.0343,0.0344,0.0344,0.0336,0.0336,0.0337,0.0334,0.0333,0.0334,0.0334,0.0334,0.0334,0,0,0,0,0,0,0,0.032,0.0322,0.0341,0.034,0.034,0.0333,0.0334,0.0331,0.034,0.0343,0.0343,0.0343,0.0336,0.0338,0.0337,0.0333,0.0334,0.0334,0.0334,0.0333,0.0338,0.0338,0,0,0,0,0,0,0.032,0.0321,0.0341,0.0341,0.033,0.0333,0.0335,0.0342,0.034,0.034,0.0343,0.0343,0.0338,0.0338,0.0337,0.0348,0.0334,0.0333,0.0333,0.0337,0.0338,0.0338,0,0,0,0,0,0,0.032,0.0322,0.0341,0.033,0.0332,0.0334,0.0342,0.0342,0.0344,0.034,0.034,0.0345,0.0338,0.0337,0.034,0.0347,0.0333,0.0333,0.0337,0.0338,0.0338,0.0363,0,0,0,0,0,0,0.0319,0.0322,0.0327,0.0331,0.0333,0.0345,0.0342,0.0342,0.0344,0.0344,0.0342,0.0341,0.0338,0.0341,0.034,0.0347,0.0333,0.0337,0.0337,0.0338,0.0362,0.0364,0.0366,0,0,0,0,0,0.0318,0.0326,0.0327,0.0329,0.0339,0.0345,0.0346,0.0347,0.0344,0.0348,0.0348,0.0341,0.0343,0.0341,0.034,0.0347,0.0336,0.0337,0.0338,0.0361,0.0364,0.0366,0,0,0,0,0,0,0.0317,0.0327,0.0328,0.0339,0.0343,0.0346,0.0349,0.0348,0.035,0.035,0.0345,0.0345,0.035,0.0344,0.0341,0.0349,0.0338,0.0339,0.0356,0.0359,0.0361,0.0375,0.0333,0,0,0,0,0,0.0319,0.0328,0.0334,0.0342,0.0345,0.0347,0.0348,0.0349,0.0352,0.0353,0.0352,0.035,0.0352,0.0352,0.0351,0.0355,0.0356,0.0359,0.0361,0.0363,0.0373,0.0383,0.0387,0.034,0.034,0.034,0,0,0.0319,0.0326,0.0331,0.0342,0.0346,0.0357,0.0348,0.0354,0.0365,0.0351,0.0365,0.0358,0.0355,0.0362,0.0363,0.0358,0.0375,0.0364,0.0366,0.0375,0.0384,0.0388,0.0392,0.0341,0.0341,0.0341,0,0,0.0329,0.0334,0.0346,0.0352,0.0359,0.0362,0.0365,0.037,0.0374,0.0383,0.0377,0.0378,0.0378,0.038,0.038,0.0394,0.0387,0.0389,0.0412,0.0421,0.0425,0.0429,0.0431,0.0435,0.039,0.039,0.039,0,0.0329,0.0349,0.0349,0.0364,0.0373,0.0367,0.0383,0.0388,0.0393,0.0399,0.0391,0.04,0.039,0.0406,0.0408,0.04,0.0402,0.0402,0.0425,0.0428,0.0432,0.0433,0.0437,0.0391,0.0391,0.0391,0.0391,0,0.0353,0.0367,0.0375,0.0395,0.0402,0.0413,0.042,0.0427,0.0427,0.0432,0.0445,0.0437,0.0444,0.0436,0.0426,0.0444,0.0436,0.0427,0.0419,0.0438,0.0438,0.0442,0.0393,0.0393,0.0392,0.0392,0,0,0.0361,0.0387,0.039,0.0405,0.042,0.043,0.0447,0.0464,0.0483,0.048,0.0507,0.0498,0.0492,0.0492,0.0479,0.0482,0.0497,0.0465,0.0464,0.047,0.0515,0.0495,0.0497,0.0492,0.0493,0.0493,0.0504,0,0.0381,0.0416,0.0421,0.0452,0.0473,0.0474,0.0494,0.0506,0.0515,0.0538,0.053,0.0549,0.0515,0.0522,0.0519,0.0512,0.0508,0.0495,0.0493,0.0494,0.0476,0.0501,0.0525,0.0536,0.0507,0.0508,0.0508,0,0.0407,0.0427,0.0462,0.0491,0.05,0.0515,0.0547,0.0564,0.0588,0.0597,0.0608,0.0606,0.0617,0.0583,0.058,0.0574,0.0545,0.0531,0.053,0.0508,0.0481,0.0513,0.0543,0.0552,0.0513,0.0513,0.0513,0,0.0424,0.0456,0.0485,0.0495,0.0527,0.054,0.0556,0.0581,0.061,0.0639,0.0668,0.067,0.069,0.066,0.0623,0.0607,0.0618,0.0591,0.0543,0.0541,0.056,0.0558,0.0604,0.0581,0.0581,0.0581,0.058,0,0.045,0.0473,0.0494,0.0512,0.0548,0.0561,0.0604,0.062,0.066,0.071,0.0702,0.0748,0.0711,0.071,0.0656,0.062,0.0643,0.0558,0.0548,0.0568,0.0567,0.0573,0.0564,0.0581,0.0581,0.0581,0.0581,0,0.0471,0.0485,0.0518,0.0548,0.0559,0.0585,0.0635,0.0671,0.0704,0.0772,0.0789,0.0821,0.0826,0.0774,0.074,0.0674,0.0633,0.0602,0.0623,0.0615,0.0567,0.0558,0.0584,0.0587,0.0558,0.0558,0.0558,0,0.0488,0.0508,0.0541,0.0562,0.0576,0.0616,0.065,0.0689,0.0735,0.0824,0.0865,0.0893,0.0925,0.0864,0.0766,0.0676,0.0646,0.0614,0.0579,0.058,0.0564,0.0561,0.0561,0.0614,0.0615,0.0615,0.0615,0,0.0516,0.0523,0.0548,0.0587,0.062,0.0667,0.0718,0.0765,0.0829,0.0899,0.0989,0.1023,0.098,0.0925,0.0792,0.0716,0.0635,0.0613,0.0623,0.0622,0.0616,0.0609,0.0584,0.0616,0.0616,0.0616,0.0616,0.0616,0.053,0.0546,0.0572,0.0609,0.0651,0.0709,0.0756,0.083,0.0918,0.1023,0.1061,0.1118,0.1049,0.0888,0.0803,0.0665,0.0647,0.0614,0.0606,0.0604,0.0605,0.0573,0.0584,0.0584,0.0584,0.0583,0.0583,0,0.0538,0.0557,0.0593,0.0637,0.0683,0.0705,0.0795,0.0854,0.0966,0.106,0.1138,0.1132,0.1057,0.0938,0.077,0.0688,0.0658,0.064,0.0662,0.0662,0.0652,0.0651,0.0669,0.0669,0.0669,0.0669,0.0669,0.0669,0.0541,0.0566,0.058,0.0645,0.0686,0.0754,0.0806,0.0905,0.0985,0.109,0.112,0.1138,0.1078,0.0903,0.0779,0.0731,0.071,0.0677,0.066,0.0672,0.067,0.0668,0.0668,0.0688,0.0688,0.0697,0.0697,0.0697]}],[{"header":{"parameterUnit":"m.s-1","parameterCategory":2,"la1":30.2991,"la2":30.254,"lo1":-89.0895,"lo2":-89.0444,"dy":0.0017,"dx":0.0017,"nx":28,"ny":28,"refTime":"2025-09-01T03:00:00:Z","depth":"2","parameterNumber":2,"parameterNumberName":"U-component_of_CURRENTS"},"data":[0,0,0,0,0,0,0,0,0,0,0,0,0,0,0,0,0,0,0,0,0,0,0,0,0,0,0,0,0,0,0,0,0,0,0,0,0,0,0,0,0,0,0,0,0,0,0,0,0,0,0,0,0,0,0,0,0,0,0.1601,0.1601,0,0.1612,0.1612,0.1611,0.158,0.158,0.158,0.1579,0.1584,0.1585,0.1585,0,0,0,0,0,0,0,0,0,0,0,0,0,0.1589,0.1588,0.16,0.1601,0.1602,0.1612,0.1612,0.1611,0.158,0.158,0.158,0.1579,0.1584,0.1585,0.1585,0,0,0,0,0,0,0,0,0,0,0,0,0,0.1588,0.1588,0.16,0.1594,0.1595,0.1612,0.1612,0.1611,0.158,0.158,0.158,0.1579,0.1584,0.1585,0.1585,0.1593,0,0,0.1586,0.1587,0,0,0,0,0,0,0,0,0.1588,0.1588,0.1594,0.1595,0.1595,0.1602,0.161,0.1608,0.158,0.1577,0.1579,0.1579,0.1595,0.1595,0.1586,0.1593,0.1594,0.1586,0.1587,0.1587,0.1587,0,0,0,0,0,0,0,0.1588,0.1587,0.1596,0.1596,0.1596,0.1605,0.1603,0.1609,0.1581,0.1577,0.1577,0.1592,0.1594,0.1585,0.1586,0.1594,0.1586,0.1587,0.1587,0.1587,0.1626,0.1626,0,0,0,0,0,0,0.1602,0.1587,0.1596,0.1598,0.1601,0.1606,0.1603,0.1593,0.1581,0.1581,0.1592,0.1591,0.1584,0.1585,0.1586,0.1627,0.1587,0.1587,0.1588,0.1625,0.1626,0.1627,0,0,0,0,0,0,0.1602,0.1602,0.1596,0.1601,0.1602,0.1607,0.1595,0.1594,0.1594,0.1594,0.1592,0.1596,0.1584,0.1585,0.1595,0.1626,0.1587,0.1588,0.1624,0.1625,0.1626,0.1689,0,0,0,0,0,0,0.1601,0.1601,0.1605,0.1601,0.1603,0.1606,0.1596,0.1594,0.1607,0.1605,0.1597,0.1596,0.1584,0.1595,0.1596,0.1626,0.1588,0.1623,0.1625,0.1626,0.1686,0.1692,0.1697,0,0,0,0,0,0.16,0.1605,0.1604,0.1607,0.1605,0.1607,0.1607,0.1605,0.1608,0.1604,0.1603,0.1597,0.1605,0.1596,0.1597,0.1627,0.1622,0.1624,0.1626,0.1683,0.1691,0.1697,0,0,0,0,0,0,0.1602,0.1604,0.1602,0.1607,0.161,0.1605,0.1615,0.1615,0.161,0.1617,0.1605,0.1604,0.1622,0.1615,0.1606,0.1641,0.1614,0.1616,0.1657,0.1664,0.1669,0.165,0.1589,0,0,0,0,0,0.1608,0.1607,0.1611,0.1615,0.162,0.162,0.1626,0.1626,0.1625,0.1623,0.1622,0.1625,0.1628,0.1638,0.1633,0.1659,0.1655,0.1679,0.1684,0.1689,0.1674,0.1706,0.1714,0.1632,0.1632,0.1632,0,0,0.1607,0.1614,0.1611,0.1617,0.1618,0.1622,0.162,0.1634,0.164,0.1627,0.1638,0.1642,0.1636,0.1656,0.1665,0.1658,0.1713,0.1691,0.1696,0.1677,0.1709,0.1717,0.1724,0.1633,0.1633,0.1633,0,0,0.1613,0.1614,0.1617,0.1621,0.1641,0.164,0.1648,0.1653,0.1657,0.167,0.1667,0.1682,0.169,0.1692,0.1694,0.1729,0.1735,0.1744,0.177,0.1803,0.181,0.1816,0.1833,0.184,0.1757,0.1757,0.1757,0,0.1618,0.1615,0.162,0.1629,0.1639,0.1648,0.1654,0.1659,0.167,0.1681,0.1678,0.1702,0.1699,0.1729,0.1738,0.1741,0.1761,0.1748,0.1811,0.1817,0.1822,0.1838,0.1845,0.176,0.176,0.176,0.1759,0,0.162,0.1624,0.1629,0.1635,0.1646,0.1654,0.1668,0.1683,0.1697,0.1704,0.1736,0.174,0.1755,0.1769,0.1761,0.1809,0.1812,0.181,0.1796,0.1834,0.1849,0.1855,0.1765,0.1764,0.1763,0.1762,0,0,0.1605,0.1625,0.1625,0.163,0.1651,0.1655,0.1679,0.1696,0.1715,0.1738,0.1766,0.178,0.1799,0.1801,0.1819,0.1846,0.1902,0.1853,0.1853,0.1873,0.198,0.187,0.1866,0.1932,0.1933,0.1934,0.198,0,0.1601,0.1614,0.1629,0.1637,0.1641,0.1663,0.1679,0.1704,0.1727,0.1758,0.1787,0.1813,0.1812,0.1838,0.1868,0.1889,0.192,0.1888,0.1935,0.1936,0.1836,0.1869,0.1701,0.1719,0.1986,0.1987,0.1988,0,0.1595,0.1603,0.1614,0.1635,0.164,0.165,0.1685,0.1706,0.1753,0.1776,0.1823,0.1846,0.1895,0.1888,0.195,0.1942,0.196,0.1972,0.1975,0.1845,0.1835,0.172,0.1719,0.1998,0.1997,0.1996,0.1996,0,0.1572,0.1592,0.1601,0.1605,0.1631,0.1647,0.1669,0.1711,0.1736,0.1802,0.1829,0.1889,0.1925,0.1966,0.1987,0.1988,0.2044,0.2048,0.1964,0.1957,0.1802,0.1778,0.2084,0.2084,0.2084,0.2084,0.2084,0,0.1555,0.1557,0.1591,0.1587,0.1601,0.1637,0.1667,0.1696,0.1752,0.178,0.1846,0.1875,0.1949,0.1989,0.2008,0.1995,0.2067,0.1958,0.1959,0.1818,0.1796,0.2021,0.2013,0.2086,0.2085,0.2085,0.2085,0,0.1525,0.1541,0.1549,0.1579,0.1588,0.1604,0.1654,0.1678,0.1738,0.1783,0.1809,0.1881,0.1918,0.1969,0.2025,0.2002,0.2011,0.1989,0.1806,0.1781,0.19,0.1895,0.1903,0.1899,0.1896,0.1894,0.1891,0,0.1507,0.1514,0.154,0.1545,0.1557,0.1588,0.1607,0.1662,0.169,0.177,0.1784,0.1841,0.1841,0.1874,0.1848,0.1848,0.1939,0.1699,0.1644,0.1879,0.1881,0.188,0.1879,0.1483,0.1478,0.1473,0.147,0,0.1477,0.1496,0.1504,0.1513,0.1526,0.1541,0.1574,0.1586,0.1654,0.1678,0.1697,0.1702,0.1709,0.1608,0.1602,0.1589,0.1681,0.1607,0.1922,0.1537,0.1482,0.1484,0.1497,0.1431,0.1435,0.1438,0.144,0.1442,0.1461,0.1457,0.1471,0.1473,0.1488,0.1479,0.1465,0.1495,0.1497,0.1496,0.1554,0.1493,0.1491,0.1361,0.1311,0.1283,0.1413,0.1367,0.1381,0.14,0.1325,0.1266,0.1161,0.1163,0.1165,0.1167,0.1168,0,0.1427,0.142,0.1427,0.1413,0.1403,0.1427,0.1426,0.1388,0.1347,0.1344,0.1318,0.1161,0.1058,0.1072,0.0943,0.0927,0.0939,0.0904,0.0916,0.0954,0.0988,0.0894,0.0614,0.0613,0.0611,0.061,0,0,0.1404,0.1377,0.1366,0.1316,0.1319,0.1257,0.1234,0.1186,0.1154,0.1061,0.0996,0.1015,0.103,0.0814,0.0774,0.0671,0.0816,0.064,0.1083,0.1136,0.1168,0.125,0.1145,0,0,0,0,0]},{"header":{"parameterUnit":"m.s-1","parameterCategory":2,"la1":30.2991,"la2":30.254,"lo1":-89.0895,"lo2":-89.0444,"dy":0.0017,"dx":0.0017,"nx":28,"ny":28,"refTime":"2025-09-01T03:00:00:Z","depth":"2","parameterNumber":3,"parameterNumberName":"V-component_of_CURRENTS"},"data":[0,0,0,0,0,0,0,0,0,0,0,0,0,0,0,0,0,0,0,0,0,0,0,0,0,0,0,0,0,0,0,0,0,0,0,0,0,0,0,0,0,0,0,0,0,0,0,0,0,0,0,0,0,0,0,0,0,0,0.0134,0.0134,0,0.0144,0.0144,0.0144,0.0143,0.0143,0.0143,0.0143,0.0145,0.0145,0.0145,0,0,0,0,0,0,0,0,0,0,0,0,0,0.0111,0.0111,0.0134,0.0134,0.0134,0.0144,0.0144,0.0144,0.0143,0.0143,0.0143,0.0143,0.0145,0.0145,0.0145,0,0,0,0,0,0,0,0,0,0,0,0,0,0.012,0.0112,0.0134,0.0136,0.0136,0.0144,0.0144,0.0144,0.0143,0.0143,0.0143,0.0143,0.0145,0.0145,0.0145,0.0148,0,0,0.0146,0.0146,0,0,0,0,0,0,0,0,0.012,0.0121,0.0135,0.0136,0.0136,0.0143,0.0137,0.0145,0.0143,0.014,0.0143,0.0143,0.0144,0.0145,0.0145,0.0148,0.0149,0.0146,0.0146,0.0146,0.0146,0,0,0,0,0,0,0,0.0119,0.012,0.0137,0.0136,0.0136,0.0135,0.0136,0.0138,0.0142,0.014,0.014,0.0143,0.0144,0.0145,0.0146,0.0149,0.0146,0.0146,0.0146,0.0146,0.0155,0.0155,0,0,0,0,0,0,0.012,0.012,0.0137,0.0137,0.0129,0.0136,0.0137,0.014,0.0142,0.0142,0.0143,0.0143,0.0145,0.0145,0.0146,0.0158,0.0146,0.0146,0.0146,0.0155,0.0155,0.0155,0,0,0,0,0,0,0.0119,0.0121,0.0136,0.013,0.0131,0.0136,0.014,0.0141,0.0143,0.0144,0.0144,0.0145,0.0145,0.0145,0.0151,0.0158,0.0146,0.0146,0.0155,0.0155,0.0155,0.0178,0,0,0,0,0,0,0.0119,0.0121,0.0124,0.013,0.0132,0.0143,0.014,0.0141,0.0145,0.0145,0.0146,0.0146,0.0145,0.0151,0.0151,0.0158,0.0147,0.0155,0.0155,0.0155,0.0177,0.0179,0.0181,0,0,0,0,0,0.0118,0.0124,0.0124,0.0126,0.0136,0.0144,0.0145,0.0147,0.0145,0.0148,0.015,0.0146,0.0153,0.0151,0.0152,0.0159,0.0154,0.0155,0.0155,0.0176,0.0179,0.018,0,0,0,0,0,0,0.0115,0.0125,0.0125,0.0133,0.0138,0.0144,0.0149,0.0148,0.0152,0.0153,0.015,0.0151,0.0157,0.0154,0.0152,0.0161,0.0152,0.0152,0.0168,0.017,0.0172,0.0183,0.0147,0,0,0,0,0,0.0116,0.0124,0.013,0.0138,0.0141,0.0144,0.0148,0.015,0.0154,0.0155,0.0156,0.0156,0.0159,0.0161,0.0162,0.0169,0.0168,0.0172,0.0173,0.0175,0.0184,0.019,0.0193,0.0156,0.0156,0.0156,0,0,0.0118,0.0124,0.0129,0.0138,0.0142,0.0154,0.0146,0.0155,0.0165,0.0155,0.0168,0.0163,0.0161,0.0169,0.0171,0.0168,0.0184,0.0175,0.0177,0.0185,0.019,0.0194,0.0197,0.0156,0.0156,0.0156,0,0,0.0129,0.013,0.0143,0.0148,0.0158,0.0161,0.0164,0.017,0.0174,0.0183,0.0179,0.018,0.0182,0.0185,0.0185,0.0197,0.0192,0.0193,0.0214,0.0219,0.0222,0.0225,0.0224,0.0227,0.0195,0.0195,0.0195,0,0.013,0.0147,0.0147,0.016,0.017,0.0166,0.0182,0.0185,0.0192,0.02,0.019,0.0199,0.0192,0.0208,0.0209,0.0202,0.0202,0.0207,0.0222,0.0225,0.0228,0.0226,0.0229,0.0196,0.0196,0.0196,0.0196,0,0.0154,0.0165,0.0173,0.019,0.0198,0.0211,0.0217,0.0224,0.0224,0.0228,0.024,0.0232,0.024,0.0232,0.0223,0.0239,0.0232,0.0223,0.0219,0.0233,0.023,0.0233,0.0198,0.0197,0.0197,0.0197,0,0,0.0165,0.0186,0.019,0.0203,0.0216,0.0227,0.0244,0.0261,0.0279,0.0275,0.0299,0.0289,0.0284,0.0284,0.0274,0.0273,0.0281,0.0257,0.0257,0.026,0.0291,0.0284,0.0285,0.0277,0.0278,0.0278,0.028,0,0.0186,0.0217,0.0222,0.0251,0.0269,0.0271,0.0291,0.0303,0.0309,0.0329,0.0321,0.0336,0.0305,0.0313,0.0307,0.0293,0.029,0.0282,0.0274,0.0274,0.0269,0.0289,0.0299,0.0301,0.0283,0.0283,0.0283,0,0.0212,0.023,0.0262,0.029,0.0298,0.0313,0.0346,0.0363,0.0383,0.039,0.0399,0.0394,0.0398,0.0368,0.0354,0.0351,0.0324,0.0306,0.0306,0.0295,0.0271,0.0285,0.0306,0.0287,0.0287,0.0287,0.0286,0,0.023,0.026,0.0288,0.0297,0.0325,0.0341,0.0359,0.0382,0.0409,0.0434,0.0457,0.0453,0.0465,0.0434,0.0392,0.0377,0.0374,0.0349,0.0316,0.0314,0.0321,0.0319,0.0339,0.0339,0.0339,0.0339,0.0339,0,0.0255,0.0278,0.0298,0.0314,0.0352,0.0364,0.0409,0.0423,0.046,0.0505,0.0493,0.0527,0.0483,0.0474,0.042,0.0382,0.0397,0.0329,0.032,0.0327,0.0326,0.0311,0.0308,0.0339,0.0339,0.0339,0.0339,0,0.0277,0.0287,0.032,0.035,0.0361,0.039,0.0441,0.0477,0.0505,0.0566,0.058,0.0592,0.0584,0.0532,0.0488,0.043,0.0386,0.0364,0.0373,0.0365,0.0313,0.0311,0.0332,0.0332,0.0331,0.0331,0.0331,0,0.0292,0.0312,0.0347,0.0368,0.0382,0.0426,0.0461,0.0496,0.054,0.061,0.0645,0.0657,0.0671,0.06,0.0516,0.0435,0.0404,0.0371,0.0342,0.0326,0.0315,0.0313,0.0311,0.0355,0.0355,0.0355,0.0355,0,0.0322,0.0332,0.036,0.04,0.0433,0.0479,0.0531,0.0573,0.0631,0.0685,0.0749,0.0765,0.0715,0.0648,0.0535,0.0467,0.0384,0.037,0.0368,0.0352,0.0347,0.0336,0.0334,0.0356,0.0356,0.0356,0.0356,0.0356,0.0344,0.0364,0.0394,0.0432,0.0474,0.0526,0.057,0.0635,0.0709,0.0786,0.0806,0.0822,0.0754,0.0611,0.0517,0.0404,0.0408,0.0346,0.0346,0.0346,0.0346,0.0341,0.0348,0.0347,0.0347,0.0347,0.0347,0,0.0366,0.0386,0.0425,0.0468,0.0514,0.0532,0.0612,0.066,0.0748,0.0809,0.0856,0.0774,0.0713,0.0616,0.047,0.0381,0.0361,0.0325,0.0331,0.0332,0.0332,0.033,0.0328,0.0328,0.0327,0.0327,0,0,0.0376,0.0407,0.042,0.0483,0.0523,0.0582,0.0627,0.07,0.0755,0.0807,0.0815,0.0831,0.0739,0.062,0.0514,0.0426,0.0386,0.039,0.0418,0.0439,0.044,0.036,0.0361,0,0,0,0,0]}],[{"header":{"parameterUnit":"m.s-1","parameterCategory":2,"la1":30.2991,"la2":30.254,"lo1":-89.0895,"lo2":-89.0444,"dy":0.0017,"dx":0.0017,"nx":28,"ny":28,"refTime":"2025-09-01T03:00:00:Z","depth":"4","parameterNumber":2,"parameterNumberName":"U-component_of_CURRENTS"},"data":[0,0,0,0,0,0,0,0,0,0,0,0,0,0,0,0,0,0,0,0,0,0,0,0,0,0,0,0,0,0,0,0,0,0,0,0,0,0,0,0,0,0,0,0,0,0,0,0,0,0,0,0,0,0,0,0,0,0,0.079,0.079,0,0.0807,0.0807,0.0807,0.0824,0.0824,0.0825,0.0825,0.087,0.087,0.0871,0,0,0,0,0,0,0,0,0,0,0,0,0,0.0775,0.0775,0.079,0.079,0.079,0.0807,0.0807,0.0807,0.0824,0.0824,0.0825,0.0825,0.0869,0.087,0.0871,0,0,0,0,0,0,0,0,0,0,0,0,0,0.0784,0.0775,0.079,0.0802,0.0803,0.0807,0.0807,0.0807,0.0824,0.0824,0.0825,0.0825,0.0869,0.087,0.0871,0.087,0,0,0.0875,0.0876,0,0,0,0,0,0,0,0,0.0784,0.0785,0.08,0.0801,0.0802,0.0815,0.0818,0.083,0.0824,0.0815,0.0825,0.0826,0.0854,0.0857,0.0857,0.0872,0.0874,0.0876,0.0876,0.0877,0.0877,0,0,0,0,0,0,0,0.0783,0.0784,0.0795,0.08,0.0802,0.0807,0.0809,0.082,0.0831,0.0816,0.0817,0.0821,0.0855,0.0855,0.0858,0.0874,0.0876,0.0877,0.0878,0.0878,0.094,0.0941,0,0,0,0,0,0,0.0783,0.0783,0.0795,0.0796,0.0795,0.0807,0.0809,0.0809,0.083,0.0834,0.082,0.0821,0.0853,0.0856,0.086,0.0908,0.0877,0.0878,0.0879,0.094,0.0941,0.0942,0,0,0,0,0,0,0.0782,0.0783,0.0794,0.0791,0.0793,0.0807,0.0807,0.0809,0.0828,0.0834,0.0838,0.0839,0.0853,0.0858,0.0886,0.0908,0.0879,0.088,0.0939,0.094,0.0941,0.0973,0,0,0,0,0,0,0.0782,0.0783,0.0792,0.0791,0.0793,0.0803,0.0807,0.0809,0.0829,0.0831,0.0851,0.0854,0.0854,0.0884,0.0887,0.0909,0.0881,0.0937,0.0939,0.0941,0.0971,0.0976,0.0979,0,0,0,0,0,0.0781,0.0788,0.0792,0.0794,0.0802,0.0803,0.0805,0.0816,0.083,0.0836,0.0855,0.0855,0.0897,0.0886,0.0889,0.0912,0.0937,0.0939,0.0941,0.0969,0.0975,0.0979,0,0,0,0,0,0,0.0785,0.079,0.0795,0.0803,0.0807,0.0807,0.082,0.0827,0.0846,0.0859,0.0865,0.087,0.09,0.0903,0.0891,0.0935,0.0917,0.092,0.0938,0.0943,0.0947,0.0938,0.0882,0,0,0,0,0,0.079,0.08,0.08,0.081,0.0814,0.0821,0.0829,0.0835,0.0848,0.0858,0.0874,0.0894,0.0907,0.0923,0.0932,0.096,0.0963,0.0977,0.0981,0.0985,0.098,0.1012,0.1019,0.0948,0.0948,0.0948,0,0,0.0794,0.0801,0.0806,0.0813,0.082,0.0823,0.0827,0.0843,0.0855,0.086,0.0895,0.0908,0.0917,0.0944,0.0959,0.0953,0.1007,0.0987,0.099,0.0984,0.1015,0.1022,0.1028,0.0949,0.0949,0.0949,0,0,0.0801,0.0814,0.0822,0.0826,0.0841,0.0842,0.0851,0.0863,0.088,0.0906,0.0916,0.0942,0.0968,0.0977,0.0984,0.1017,0.1023,0.1029,0.105,0.1081,0.1087,0.1093,0.1105,0.1111,0.1037,0.1037,0.1037,0,0.0808,0.0815,0.0824,0.0832,0.084,0.0852,0.0858,0.0872,0.0896,0.0916,0.0922,0.0971,0.0979,0.101,0.1021,0.1026,0.1043,0.103,0.1087,0.1092,0.1097,0.1108,0.1115,0.1038,0.1038,0.1038,0.1038,0,0.0812,0.0825,0.0832,0.0844,0.0852,0.0863,0.0876,0.09,0.0926,0.0941,0.0987,0.1002,0.1033,0.1042,0.1041,0.1085,0.1084,0.1085,0.1074,0.1106,0.1116,0.1122,0.1041,0.104,0.104,0.1039,0,0,0.0808,0.083,0.0836,0.0842,0.0862,0.0865,0.0895,0.0918,0.0944,0.0979,0.1016,0.1045,0.1068,0.1077,0.1091,0.1115,0.1161,0.112,0.1121,0.1131,0.1229,0.1134,0.1131,0.1183,0.1184,0.1185,0.1221,0,0.0811,0.0826,0.0839,0.0853,0.0857,0.088,0.0902,0.0931,0.0963,0.1003,0.1038,0.1076,0.1079,0.1106,0.1132,0.1152,0.1179,0.115,0.1197,0.1197,0.1108,0.1135,0.1189,0.1226,0.1227,0.1228,0.1229,0,0.0806,0.082,0.0836,0.0857,0.0863,0.0878,0.092,0.0941,0.0996,0.1028,0.1078,0.1107,0.1154,0.1151,0.1209,0.1198,0.1217,0.1227,0.1229,0.113,0.1113,0.1187,0.124,0.1239,0.1238,0.1237,0.1237,0,0.079,0.0814,0.083,0.0837,0.0864,0.0889,0.091,0.0958,0.0986,0.1054,0.1085,0.1145,0.1183,0.122,0.1245,0.1243,0.1296,0.1295,0.1226,0.1219,0.128,0.1274,0.1337,0.1337,0.1337,0.1337,0.1336,0,0.0776,0.0788,0.0829,0.0837,0.0862,0.0886,0.0923,0.0958,0.1013,0.1041,0.1106,0.1132,0.1207,0.1244,0.1261,0.1254,0.1316,0.1225,0.1223,0.1292,0.1287,0.1284,0.1277,0.1338,0.1338,0.1337,0.1337,0,0.0748,0.0775,0.0794,0.0838,0.0854,0.0876,0.0927,0.0947,0.1009,0.1049,0.1077,0.1146,0.1188,0.1239,0.1292,0.1263,0.127,0.1255,0.1317,0.1318,0.1168,0.1163,0.1179,0.1176,0.1173,0.1171,0.1169,0,0.0733,0.0744,0.0795,0.081,0.0834,0.0869,0.0888,0.0946,0.096,0.1037,0.1043,0.1117,0.1154,0.1148,0.1208,0.1234,0.1225,0.1218,0.1194,0.1156,0.1154,0.1152,0.1151,0.1165,0.1165,0.1164,0.1163,0,0.0711,0.0742,0.0764,0.0787,0.0814,0.0821,0.0851,0.0857,0.0912,0.0984,0.0988,0.1014,0.1054,0.1088,0.112,0.1135,0.1213,0.1191,0.1196,0.1174,0.114,0.1139,0.1141,0.1154,0.1156,0.1157,0.1157,0,0.0708,0.0718,0.0751,0.0761,0.078,0.0756,0.0778,0.0783,0.0806,0.0888,0.0885,0.096,0.1031,0.1036,0.1059,0.1071,0.106,0.1024,0.1038,0.1049,0.099,0.0927,0.0872,0,0,0,0,0,0.0702,0.0706,0.0715,0.0711,0.0715,0.0722,0.0739,0.0758,0.0817,0.0795,0.0837,0.0867,0.0901,0.0936,0.0925,0.1011,0.1069,0.0993,0.1036,0.1105,0.1115,0.1058,0,0,0,0,0,0,0.0698,0.0719,0.0706,0.0657,0.0642,0.063,0.064,0.0676,0.0658,0.0731,0.0753,0.0817,0.0865,0.091,0.0914,0.0927,0.0934,0.1046,0.1043,0.1099,0.1109,0.1117,0.1062,0,0,0,0,0]},{"header":{"parameterUnit":"m.s-1","parameterCategory":2,"la1":30.2991,"la2":30.254,"lo1":-89.0895,"lo2":-89.0444,"dy":0.0017,"dx":0.0017,"nx":28,"ny":28,"refTime":"2025-09-01T03:00:00:Z","depth":"4","parameterNumber":3,"parameterNumberName":"V-component_of_CURRENTS"},"data":[0,0,0,0,0,0,0,0,0,0,0,0,0,0,0,0,0,0,0,0,0,0,0,0,0,0,0,0,0,0,0,0,0,0,0,0,0,0,0,0,0,0,0,0,0,0,0,0,0,0,0,0,0,0,0,0,0,0,0.0115,0.0116,0,0.0122,0.0122,0.0122,0.0124,0.0124,0.0124,0.0124,0.0126,0.0126,0.0126,0,0,0,0,0,0,0,0,0,0,0,0,0,0.0099,0.0099,0.0115,0.0116,0.0116,0.0122,0.0122,0.0122,0.0124,0.0124,0.0124,0.0124,0.0126,0.0126,0.0126,0,0,0,0,0,0,0,0,0,0,0,0,0,0.0105,0.0099,0.0115,0.0118,0.0118,0.0122,0.0122,0.0122,0.0124,0.0124,0.0124,0.0124,0.0126,0.0126,0.0126,0.0127,0,0,0.0127,0.0127,0,0,0,0,0,0,0,0,0.0105,0.0106,0.0117,0.0117,0.0118,0.0122,0.0117,0.0124,0.0124,0.0121,0.0124,0.0124,0.0125,0.0125,0.0126,0.0127,0.0127,0.0127,0.0127,0.0127,0.0127,0,0,0,0,0,0,0,0.0104,0.0105,0.0118,0.0117,0.0118,0.0116,0.0117,0.0118,0.0122,0.0121,0.0122,0.0123,0.0125,0.0126,0.0126,0.0127,0.0127,0.0127,0.0127,0.0127,0.0135,0.0135,0,0,0,0,0,0,0.0105,0.0105,0.0117,0.0118,0.0112,0.0117,0.0118,0.0121,0.0123,0.0123,0.0123,0.0123,0.0125,0.0126,0.0126,0.0138,0.0127,0.0127,0.0127,0.0135,0.0135,0.0135,0,0,0,0,0,0,0.0104,0.0106,0.0117,0.0112,0.0113,0.0117,0.012,0.0121,0.0124,0.0124,0.0124,0.0126,0.0126,0.0126,0.0131,0.0138,0.0127,0.0127,0.0135,0.0135,0.0135,0.0155,0,0,0,0,0,0,0.0104,0.0106,0.0109,0.0112,0.0114,0.0122,0.012,0.0121,0.0125,0.0125,0.0126,0.0126,0.0126,0.0131,0.0131,0.0138,0.0127,0.0134,0.0135,0.0135,0.0155,0.0156,0.0158,0,0,0,0,0,0.0103,0.0109,0.0109,0.0111,0.0118,0.0123,0.0123,0.0126,0.0125,0.0128,0.0129,0.0127,0.0132,0.0131,0.0131,0.0138,0.0134,0.0135,0.0135,0.0154,0.0156,0.0158,0,0,0,0,0,0,0.0104,0.011,0.011,0.0117,0.0121,0.0123,0.0128,0.0127,0.013,0.0131,0.013,0.013,0.0137,0.0133,0.0132,0.0141,0.0132,0.0133,0.0147,0.0149,0.015,0.0156,0.0127,0,0,0,0,0,0.0105,0.011,0.0115,0.012,0.0123,0.0125,0.0128,0.0129,0.0131,0.0133,0.0134,0.0135,0.0138,0.014,0.0141,0.0147,0.014,0.015,0.0152,0.0153,0.0158,0.0154,0.0156,0.0136,0.0136,0.0136,0,0,0.0107,0.0111,0.0114,0.0121,0.0124,0.0133,0.0127,0.0132,0.0141,0.0133,0.0144,0.0142,0.0141,0.0148,0.015,0.0146,0.0154,0.0154,0.0155,0.0159,0.0154,0.0156,0.0158,0.0137,0.0136,0.0136,0,0,0.0114,0.0117,0.0124,0.0129,0.0135,0.0138,0.014,0.0145,0.0148,0.0156,0.0153,0.0156,0.0159,0.0162,0.0163,0.0173,0.0163,0.0171,0.0186,0.0182,0.0183,0.0185,0.0173,0.0173,0.0172,0.0172,0.0172,0,0.0116,0.0127,0.0127,0.0136,0.0144,0.0142,0.0154,0.0158,0.0163,0.0169,0.0163,0.0171,0.0168,0.018,0.0182,0.0178,0.017,0.0179,0.0184,0.0185,0.0187,0.0174,0.0174,0.0173,0.0173,0.0173,0.0173,0,0.013,0.0139,0.0144,0.0157,0.0164,0.0173,0.018,0.0187,0.0189,0.0192,0.0203,0.0198,0.0203,0.02,0.0195,0.0202,0.0191,0.0187,0.018,0.019,0.0176,0.0175,0.0175,0.0174,0.0174,0.0174,0,0,0.0134,0.0151,0.0154,0.0165,0.0177,0.0185,0.0201,0.0215,0.023,0.0228,0.0244,0.0242,0.0237,0.0237,0.0229,0.0224,0.0219,0.0208,0.0208,0.0199,0.0204,0.0203,0.0202,0.0215,0.0215,0.0215,0.0189,0,0.0147,0.0168,0.0174,0.0197,0.021,0.0217,0.0235,0.0247,0.0253,0.0267,0.0261,0.0272,0.0252,0.0256,0.0247,0.023,0.022,0.0226,0.0194,0.0193,0.0193,0.0202,0.0216,0.0189,0.0188,0.0188,0.0188,0,0.016,0.0173,0.0197,0.0224,0.0231,0.0246,0.0275,0.029,0.0306,0.0311,0.0315,0.0309,0.0306,0.0286,0.0259,0.0263,0.0235,0.0216,0.0215,0.0208,0.0192,0.0178,0.0187,0.0187,0.0188,0.0188,0.0188,0,0.0166,0.0191,0.0212,0.0221,0.0249,0.0265,0.0283,0.0304,0.0327,0.034,0.0354,0.0344,0.0346,0.0312,0.0271,0.0265,0.0236,0.0223,0.0195,0.0194,0.0193,0.0191,0.0202,0.0202,0.0202,0.0202,0.0202,0,0.0177,0.0196,0.0218,0.0231,0.0264,0.0279,0.0317,0.0332,0.0361,0.0391,0.0379,0.0393,0.0352,0.0331,0.0284,0.0241,0.0246,0.02,0.0191,0.02,0.02,0.0192,0.0191,0.0201,0.0201,0.0202,0.0202,0,0.0184,0.0196,0.0223,0.0255,0.0268,0.0293,0.0343,0.0372,0.0393,0.0431,0.0439,0.0434,0.0409,0.0363,0.031,0.0265,0.0219,0.0201,0.0214,0.0205,0.0173,0.0173,0.0166,0.0166,0.0166,0.0166,0.0166,0,0.019,0.0203,0.024,0.026,0.0277,0.0317,0.035,0.0385,0.0416,0.0455,0.0473,0.0465,0.0453,0.0376,0.0322,0.0241,0.0224,0.0191,0.0181,0.018,0.0171,0.0172,0.0172,0.0165,0.0165,0.0165,0.0165,0,0.0203,0.0215,0.0238,0.0275,0.0309,0.0352,0.0397,0.0424,0.0468,0.0489,0.0502,0.0471,0.0444,0.038,0.0322,0.026,0.0209,0.0189,0.0189,0.0179,0.0179,0.017,0.0171,0.0165,0.0165,0.0165,0.0165,0,0.0215,0.023,0.0257,0.029,0.0331,0.0372,0.04,0.0439,0.0471,0.0512,0.0513,0.0486,0.0472,0.039,0.0335,0.028,0.0258,0.022,0.0218,0.0218,0.024,0.0247,0.0251,0,0,0,0,0,0.0226,0.0241,0.027,0.0306,0.0346,0.0369,0.0426,0.0453,0.0494,0.0505,0.0511,0.0486,0.0418,0.0388,0.0333,0.0326,0.0245,0.0257,0.0199,0.0162,0.0163,0.018,0,0,0,0,0,0,0.0233,0.026,0.0267,0.031,0.0336,0.0383,0.0419,0.045,0.0458,0.0488,0.0453,0.0451,0.0386,0.0445,0.0323,0.031,0.026,0.0232,0.023,0.0162,0.0162,0.0163,0.0181,0,0,0,0,0]}]]